Szeged, Hungary

8:13 AM CET on March 24, 2017 (GMT +0100)
Szeged

Weather History for LHUD - November, 2012

Change the Weather History Date:

Thursday, November 1, 2012

  Actual Average (LRAR) Record (LRAR)
Temperature  
Mean Temperature 48 °F -  
Max Temperature 57 °F 49 °F 77 °F (2008)
Min Temperature 39 °F 35 °F 26 °F (1997)
Degree Days  
Heating Degree Days 17    
Moisture  
Dew Point 46 °F    
Average Humidity 83    
Maximum Humidity 100    
Minimum Humidity 64    
Precipitation  
Precipitation 0.16 in 0.05 in - ()
Sea Level Pressure  
Sea Level Pressure 29.56 in    
Wind  
Wind Speed 16 mph ()    
Max Wind Speed 30 mph    
Max Gust Speed 46 mph    
Visibility 7.4 miles    
Events Rain    
Averages and records for this station are not official NWS values.
T = Trace of Precipitation, MM = Missing Value Source: Averaged Metar Reports

Daily Weather History Graph

Daily Weather History Graph

Search for Another Location

Airport or City:

Trip Planner

Search our weather history database for the weather conditions in past years. The results will help you decide how hot, cold, wet, or windy it might be!

Date:

Astronomy

Nov. 01, 2012 Rise Set
Actual Time 6:20 AM CET 4:24 PM CET
Civil Twilight 5:49 AM CET 4:56 PM CET
Nautical Twilight 5:14 AM CET 5:31 PM CET
Astronomical Twilight 4:39 AM CET 6:06 PM CET
Moon 6:00 PM CET (11/1) 8:45 AM CET (11/1)
Length of Visible Light 11h 06m
Length of Day
10h 03m
Waning Gibbous, 94% of the Moon is Illuminated
Nov 1
Waning Gibbous
Nov 7
Last Quarter
Nov 13
New
Nov 20
First Quarter
Nov 28
Full

Hourly Weather History & Observations

Time (CET) Temp. Windchill Dew Point Humidity Pressure Visibility Wind Dir Wind Speed Gust Speed Precip Events Conditions
12:45 AM 41.0 °F 34.7 °F 33.8 °F 76% 29.80 in - East 10.4 mph - N/A   Clear
1:00 AM 42 °F - 34 °F 64% 29.79 in 19 mi East 11.2 mph - -   Partly Cloudy
1:45 AM 42.8 °F 36.2 °F 35.6 °F 76% 29.74 in - East 12.7 mph - N/A   Clear
2:45 AM 42.8 °F 36.6 °F 35.6 °F 76% 29.71 in - East 11.5 mph - N/A   Clear
3:45 AM 44.6 °F 38.1 °F 35.6 °F 71% 29.68 in - ESE 13.8 mph - N/A   Clear
4:45 AM 44.6 °F 38.8 °F 37.4 °F 76% 29.65 in - ESE 11.5 mph - N/A   Clear
5:15 AM 44.6 °F 38.4 °F 37.4 °F 76% 29.62 in - ESE 12.7 mph - N/A   Clear
5:45 AM 46.4 °F 40.7 °F 39.2 °F 76% 29.62 in - ESE 12.7 mph - N/A   Clear
6:15 AM 46.4 °F 40.7 °F 39.2 °F 76% 29.59 in - ESE 12.7 mph - N/A   Clear
6:45 AM 48.2 °F - 39.2 °F 71% 29.59 in - ESE 16.1 mph - N/A   Clear
6:57 AM 48.2 °F - 41.0 °F 76% 29.59 in 6.2 mi ESE 18.4 mph - N/A Rain Light Rain
7:00 AM 47 °F - 39 °F 67% 29.59 in 19 mi ESE 15.7 mph - -   Partly Cloudy
7:02 AM 48.2 °F - 41.0 °F 76% 29.59 in - ESE 18.4 mph 29.9 mph N/A   Unknown
7:03 AM 48.2 °F - 41.0 °F 76% 29.59 in 6.2 mi ESE 19.6 mph - N/A Rain Light Rain
7:15 AM 48.2 °F - 41.0 °F 76% 29.59 in 6.2 mi SE 20.7 mph - N/A Rain Light Rain
7:45 AM 48.2 °F - 42.8 °F 82% 29.59 in 6.2 mi SE 20.7 mph - N/A Rain Light Rain
8:15 AM 48.2 °F - 46.4 °F 93% 29.56 in 6.2 mi SE 21.9 mph - N/A Rain Light Rain
8:45 AM 50.0 °F - 46.4 °F 87% 29.56 in 6.2 mi SE 24.2 mph - N/A Rain Light Rain
9:15 AM 51.8 °F - 48.2 °F 88% 29.53 in 6.2 mi SE 23.0 mph - N/A   Overcast
9:16 AM 51.8 °F - 48.2 °F 88% 29.53 in - SE 25.3 mph 41.4 mph N/A   Unknown
9:17 AM 51.8 °F - 48.2 °F 88% 29.56 in 6.2 mi SE 24.2 mph 40.3 mph N/A   Overcast
9:45 AM 53.6 °F - 48.2 °F 82% 29.53 in - SE 25.3 mph - N/A   Clear
10:15 AM 53.6 °F - 48.2 °F 82% 29.50 in - SE 27.6 mph 41.4 mph N/A   Clear
10:45 AM 53.6 °F - 48.2 °F 82% 29.50 in 6.2 mi SE 29.9 mph 46.0 mph N/A Rain Light Rain
11:15 AM 53.6 °F - 48.2 °F 82% 29.50 in 6.2 mi SE 25.3 mph - N/A Rain Light Rain
11:45 AM 53.6 °F - 50.0 °F 88% 29.50 in 6.2 mi SE 24.2 mph - N/A Rain Light Rain
12:15 PM 53.6 °F - 50.0 °F 88% 29.47 in 6.2 mi SE 25.3 mph 36.8 mph N/A Rain Light Rain
12:45 PM 53.6 °F - 50.0 °F 88% 29.47 in 6.2 mi SE 28.8 mph - N/A Rain Light Rain
1:00 PM 53 °F - 50 °F 85% 29.47 in 9 mi SE 26.8 mph - - Rain Light Rain
1:15 PM 53.6 °F - 50.0 °F 88% 29.47 in 6.2 mi SE 23.0 mph - N/A   Mostly Cloudy
1:45 PM 55.4 °F - 50.0 °F 82% 29.47 in 6.2 mi SE 18.4 mph - N/A   Mostly Cloudy
2:15 PM 57.2 °F - 50.0 °F 77% 29.47 in 6.2 mi SE 23.0 mph 35.7 mph N/A   Scattered Clouds
2:45 PM 57.2 °F - 50.0 °F 77% 29.47 in 6.2 mi SE 28.8 mph 41.4 mph N/A   Scattered Clouds
3:15 PM 57.2 °F - 50.0 °F 77% 29.44 in 6.2 mi SE 26.5 mph 39.1 mph N/A   Partly Cloudy
3:45 PM 55.4 °F - 50.0 °F 82% 29.47 in 6.2 mi SE 19.6 mph - N/A   Scattered Clouds
4:15 PM 55.4 °F - 50.0 °F 82% 29.47 in - SE 15.0 mph - N/A   Clear
4:45 PM 55.4 °F - 48.2 °F 77% 29.47 in - SSE 13.8 mph - N/A   Clear
5:15 PM 55.4 °F - 50.0 °F 82% 29.50 in - SSE 16.1 mph - N/A   Clear
5:18 PM 55.4 °F - 50.0 °F 82% 29.50 in - South 18.4 mph - N/A   Unknown
5:45 PM 53.6 °F - 50.0 °F 88% 29.50 in 6.2 mi South 18.4 mph - N/A Rain Light Rain
6:15 PM 53.6 °F - 50.0 °F 88% 29.53 in 6.2 mi SSE 16.1 mph - N/A Rain Light Rain
6:45 PM 53.6 °F - 50.0 °F 88% 29.53 in 6.2 mi SSE 13.8 mph - N/A   Overcast
7:00 PM 53 °F - 51 °F 88% 29.53 in 9 mi SSE 13.4 mph - - Rain Light Rain
7:15 PM 53.6 °F - 50.0 °F 88% 29.53 in - SSE 16.1 mph - N/A   Clear
7:45 PM 51.8 °F - 50.0 °F 94% 29.53 in - South 13.8 mph - N/A   Clear
8:15 PM 51.8 °F - 50.0 °F 94% 29.56 in - South 13.8 mph - N/A   Clear
8:45 PM 51.8 °F - 50.0 °F 94% 29.56 in - South 6.9 mph - N/A   Clear
9:45 PM 50.0 °F - 48.2 °F 94% 29.59 in - South 5.8 mph - N/A   Clear
10:45 PM 48.2 °F - 48.2 °F 100% 29.59 in - SSE 6.9 mph - N/A   Clear
11:45 PM 48.2 °F - 48.2 °F 100% 29.62 in - SSE 6.9 mph - N/A   Clear